{"data":{"norad_id":56049,"intl_designator":"2023-043D","name":"ONEWEB-0547","alt_names":[],"object_type":"PAYLOAD","status":"ACTIVE","operator":null,"country":"UK","launch_date":"2023-03-26","launch_site_code":"SRILR","launch_vehicle":null,"mission":null,"orbit_class":"UNKNOWN","rcs_meters":null,"size_class":null,"mass_kg":null,"dimensions":null,"purposes":["comms"],"wikipedia_slug":null,"has_3d_model":false,"image_url":null,"decayed_at":null,"tle_current":{"epoch":"2026-09-20T04:06:50.987808Z","epoch_age_seconds":46684,"freshness":"FRESH","line1":"1 56049U 23043D   26263.17142347  .00000019  00000+0  13691-4 0  9997","line2":"2 56049  87.9285 225.0706 0001958  74.5622 285.5728 13.21826877170770","mean_motion":13.21826877,"eccentricity":0.0001958,"inclination_deg":87.9285,"raan_deg":225.0706,"arg_perigee_deg":74.5622,"mean_anomaly_deg":285.5728,"bstar":1.3691e-5,"rev_number":17077,"period_min":108.94013619001,"perigee_km":1176.270583588,"apogee_km":1179.2294689475,"semimajor_km":7555.8870262678,"source":"CELESTRAK","updated_at":"2026-09-20T09:00:44.786854Z"}}}